Prestwick, United Kingdom

11:26 PM GMT on November 24, 2017 (GMT +0000)
Prestwick

Weather History for EGPK - November, 2013

Change the Weather History Date:

Saturday, November 9, 2013

  Actual Average Record
Temperature  
Mean Temperature 37 °F -  
Max Temperature 44 °F 47 °F 60 °F (2015)
Min Temperature 30 °F 37 °F 28 °F (2001)
Degree Days  
Heating Degree Days 28    
Moisture  
Dew Point 35 °F    
Average Humidity 84    
Maximum Humidity 93    
Minimum Humidity 71    
Precipitation  
Precipitation 0.00 in - - ()
Sea Level Pressure  
Sea Level Pressure 29.55 in    
Wind  
Wind Speed 7 mph ()    
Max Wind Speed 21 mph    
Max Gust Speed -    
Visibility 6.2 miles    
Events Rain    
Averages and records for this station are not official NWS values.
T = Trace of Precipitation, MM = Missing Value Source: Averaged Metar Reports

Daily Weather History Graph

Daily Weather History Graph

Search for Another Location

Airport or City:

Trip Planner

Search our weather history database for the weather conditions in past years. The results will help you decide how hot, cold, wet, or windy it might be!

Date:

Astronomy

Nov. 09, 2013 Rise Set
Actual Time 7:40 AM GMT 4:23 PM GMT
Civil Twilight 6:59 AM GMT 5:03 PM GMT
Nautical Twilight 6:15 AM GMT 5:47 PM GMT
Astronomical Twilight 5:32 AM GMT 6:30 PM GMT
Moon 12:59 PM GMT (11/9) 10:49 PM GMT (11/9)
Length of Visible Light 10h 03m
Length of Day
8h 42m
Waxing Crescent, 41% of the Moon is Illuminated
Nov 9
Waxing Crescent
Nov 10
First Quarter
Nov 17
Full
Nov 25
Last Quarter
Dec 3
New

Hourly Weather History & Observations

Time (GMT) Temp. Windchill Dew Point Humidity Pressure Visibility Wind Dir Wind Speed Gust Speed Precip Events Conditions
12:50 AM 39.2 °F - 35.6 °F 87% 29.56 in 6.2 mi Calm Calm - N/A   Scattered Clouds
1:50 AM 41.0 °F - 37.4 °F 87% 29.53 in 6.2 mi Calm Calm - N/A   Scattered Clouds
2:50 AM 42.8 °F 35.8 °F 37.4 °F 81% 29.53 in 6.2 mi WSW 13.8 mph - N/A   Scattered Clouds
3:50 AM 42.8 °F 36.2 °F 37.4 °F 81% 29.53 in 6.2 mi WSW 12.7 mph - N/A Rain Light Rain
4:50 AM 42.8 °F 37.0 °F 37.4 °F 81% 29.53 in 6.2 mi WSW 10.4 mph - N/A Rain Light Rain
5:50 AM 42.8 °F 36.6 °F 37.4 °F 81% 29.53 in 6.2 mi WSW 11.5 mph - N/A Rain Light Rain
6:20 AM 42.8 °F 36.2 °F 37.4 °F 81% 29.53 in 6.2 mi West 12.7 mph - N/A   Mostly Cloudy
6:50 AM 42.8 °F 36.2 °F 35.6 °F 76% 29.53 in 6.2 mi WSW 12.7 mph - N/A   Mostly Cloudy
7:20 AM 42.8 °F 36.2 °F 37.4 °F 81% 29.50 in 6.2 mi SW 12.7 mph - N/A Rain Light Rain
7:50 AM 41.0 °F 34.7 °F 37.4 °F 87% 29.53 in 6.2 mi SSW 10.4 mph - N/A Rain Light Rain
8:20 AM 42.8 °F 36.2 °F 37.4 °F 81% 29.53 in 6.2 mi WSW 12.7 mph - N/A Rain Light Rain
8:50 AM 44.6 °F 37.8 °F 39.2 °F 81% 29.53 in 6.2 mi SW 15.0 mph - N/A   Scattered Clouds
9:20 AM 42.8 °F 36.2 °F 37.4 °F 81% 29.53 in 6.2 mi West 12.7 mph - N/A   Scattered Clouds
9:50 AM 42.8 °F 35.4 °F 37.4 °F 81% 29.53 in 6.2 mi WSW 15.0 mph - N/A Rain Light Rain
10:20 AM 42.8 °F 35.1 °F 37.4 °F 81% 29.53 in 6.2 mi West 16.1 mph - N/A   Scattered Clouds
10:50 AM 42.8 °F 35.1 °F 35.6 °F 76% 29.53 in 6.2 mi West 16.1 mph - N/A   Scattered Clouds
11:20 AM 44.6 °F 38.8 °F 37.4 °F 76% 29.53 in 6.2 mi West 11.5 mph - N/A   Scattered Clouds
11:50 AM 41.0 °F 31.6 °F 35.6 °F 81% 29.53 in 6.2 mi WNW 20.7 mph - N/A   Light Small Hail Showers
12:20 PM 42.8 °F 37.5 °F 39.2 °F 87% 29.53 in 6.2 mi West 9.2 mph - N/A   Mostly Cloudy
12:50 PM 42.8 °F 37.0 °F 37.4 °F 81% 29.53 in 6.2 mi NW 10.4 mph - N/A   Mostly Cloudy
1:20 PM 41.0 °F 37.1 °F 35.6 °F 81% 29.53 in 6.2 mi WNW 5.8 mph - N/A   Mostly Cloudy
1:50 PM 42.8 °F 40.1 °F 37.4 °F 81% 29.50 in 6.2 mi West 4.6 mph - N/A   Scattered Clouds
2:20 PM 42.8 °F 39.3 °F 37.4 °F 81% 29.50 in 6.2 mi West 5.8 mph - N/A   Scattered Clouds
2:50 PM 44.6 °F 39.2 °F 35.6 °F 71% 29.50 in 6.2 mi West 10.4 mph - N/A   Scattered Clouds
3:20 PM 44.6 °F 38.4 °F 35.6 °F 71% 29.50 in 6.2 mi West 12.7 mph - N/A Rain Light Rain Showers
3:50 PM 42.8 °F 36.2 °F 35.6 °F 76% 29.53 in 6.2 mi WNW 12.7 mph - N/A Rain Light Rain Showers
4:20 PM 41.0 °F - 33.8 °F 76% 29.53 in 6.2 mi Calm Calm - N/A   Scattered Clouds
4:50 PM 39.2 °F - 33.8 °F 81% 29.53 in 6.2 mi Calm Calm - N/A   Scattered Clouds
5:20 PM 37.4 °F - 33.8 °F 87% 29.53 in 6.2 mi Calm Calm - N/A   Scattered Clouds
6:20 PM 35.6 °F 32.8 °F 32.0 °F 87% 29.56 in 6.2 mi West 3.5 mph - N/A   Partly Cloudy
6:50 PM 35.6 °F 31.7 °F 32.0 °F 87% 29.56 in 6.2 mi West 4.6 mph - N/A   Partly Cloudy
7:20 PM 33.8 °F 30.8 °F 32.0 °F 93% 29.56 in 6.2 mi West 3.5 mph - N/A   Partly Cloudy
7:50 PM 33.8 °F - 32.0 °F 93% 29.56 in 6.2 mi Calm Calm - N/A   Partly Cloudy
8:20 PM 33.8 °F - 32.0 °F 93% 29.56 in 6.2 mi Calm Calm - N/A   Partly Cloudy
8:50 PM 32.0 °F - 30.2 °F 93% 29.56 in 6.2 mi Calm Calm - N/A   Partly Cloudy
9:20 PM 32.0 °F - 30.2 °F 93% 29.59 in - Calm Calm - N/A   Clear
9:50 PM 32.0 °F - 30.2 °F 93% 29.59 in - Calm Calm - N/A   Clear
10:20 PM 30.2 °F - 28.4 °F 93% 29.62 in - Calm Calm - N/A   Clear
10:50 PM 30.2 °F - 28.4 °F 93% 29.65 in - Calm Calm - N/A   Clear
11:20 PM 30.2 °F - 28.4 °F 93% 29.65 in - Calm Calm - N/A   Clear
11:50 PM 30.2 °F - 28.4 °F 93% 29.68 in - Calm Calm - N/A   Clear